Date String (YYYY-MM-DD hh:mm:ss) UTC,Instrument flags,Ambient pressure (hPa),Sample flow (lpm),Bypass flow (lpm),Sample temperature (°C),Ambient temperature (°C),ASC tube jacket temperature (°C),LED temperature (°C),Box temperature (°C),Sample RH (%),Span deviation,Mass concentration (μg/m³),Mass concentration (μg/m³),Mass concentration (μg/m³)
DateTimeUTC,F1_M11,P_M11,Q1_M11,Q2_M11,T1_M11,T2_M11,T3_M11,T4_M11,T5_M11,U1_M11,ZSPAN_M11,X0_M11,X2_M11,X1_M11
2022-04-06 09:00:00,,0824.7,5.00,0.00,22.1,22.4,00.0,31.2,24.0,04.8,0000.0,0006.56,0001.55,0000.69
2022-04-06 09:01:00,,0824.8,4.99,0.00,22.3,23.2,00.0,31.2,24.3,04.9,0000.0,0006.85,0001.55,0000.68
2022-04-06 09:02:00,,0824.8,5.01,0.00,22.4,23.5,00.0,31.2,24.4,04.7,0000.0,0006.32,0001.52,0000.68
2022-04-06 09:03:00,,0824.9,5.00,0.00,22.4,23.1,00.0,31.3,24.3,04.8,0000.0,0006.52,0001.52,0000.69
2022-04-06 09:04:00,,0824.9,4.99,0.00,22.4,22.7,00.0,31.3,24.2,05.0,0000.0,0007.19,0001.52,0000.69
2022-04-06 09:05:00,,0824.9,4.99,0.00,22.4,22.3,00.0,31.3,24.1,05.1,0000.0,0007.23,0001.55,0000.70
2022-04-06 09:06:00,,0824.9,5.01,0.00,22.3,22.1,00.0,31.3,24.1,05.2,0000.0,0007.15,0001.56,0000.70
2022-04-06 09:07:00,,0824.9,5.00,0.00,22.3,21.9,00.0,31.3,24.0,05.2,0000.0,0007.27,0001.60,0000.70
2022-04-06 09:08:00,,0824.9,4.99,0.00,22.3,21.7,00.0,31.3,24.0,05.3,0000.0,0006.45,0001.53,0000.69
2022-04-06 09:09:00,,0824.9,5.01,0.00,22.2,21.6,00.0,31.3,23.9,05.2,0000.0,0005.94,0001.59,0000.69
2022-04-06 09:10:00,,0824.9,5.01,0.00,22.2,21.5,00.0,31.3,23.9,05.3,0000.0,0006.51,0001.72,0000.71
2022-04-06 09:11:00,,0824.9,4.98,0.00,22.2,21.4,00.0,31.3,23.8,05.2,0000.0,0006.63,0001.79,0000.72
2022-04-06 09:12:00,,0824.9,5.00,0.00,22.2,21.3,00.0,31.2,23.8,05.2,0000.0,0006.85,0001.83,0000.74
2022-04-06 09:13:00,,0824.9,5.00,0.00,22.1,21.3,00.0,31.2,23.8,05.3,0000.0,0007.68,0001.85,0000.74
2022-04-06 09:14:00,,0824.9,5.00,0.00,22.1,21.2,00.0,31.2,23.8,05.3,0000.0,0007.65,0001.88,0000.75
2022-04-06 09:15:00,,0824.9,5.00,0.00,22.1,21.2,00.0,31.2,23.7,05.3,0000.0,0006.87,0001.82,0000.75
2022-04-06 09:16:00,,0824.9,5.01,0.00,22.1,21.2,00.0,31.2,23.7,05.3,0000.0,0006.61,0001.74,0000.73
2022-04-06 09:17:00,,0824.9,5.00,0.00,22.1,21.1,00.0,31.2,23.7,05.3,0000.0,0007.39,0001.78,0000.73
2022-04-06 09:18:00,,0824.9,5.00,0.00,22.0,21.0,00.0,31.2,23.6,05.3,0000.0,0007.33,0001.72,0000.73
2022-04-06 09:19:00,,0824.9,5.00,0.00,22.0,21.0,00.0,31.2,23.6,05.4,0000.0,0007.28,0001.70,0000.73
2022-04-06 09:20:00,,0824.9,5.00,0.00,22.0,20.9,00.0,31.1,23.6,05.4,0000.0,0006.81,0001.67,0000.73
2022-04-06 09:21:00,,0824.9,5.01,0.00,22.0,21.5,00.0,31.2,23.8,05.3,0000.0,0005.93,0001.56,0000.73
2022-04-06 09:22:00,,0824.9,5.00,0.00,22.2,22.4,00.0,31.2,24.1,05.3,0000.0,0005.98,0001.51,0000.71
2022-04-06 09:23:00,,0824.9,5.01,0.00,22.3,23.0,00.0,31.2,24.3,05.3,0000.0,0006.26,0001.51,0000.70
2022-04-06 09:24:00,,0824.9,4.99,0.00,22.4,22.8,00.0,31.2,24.3,05.2,0000.0,0005.67,0001.55,0000.68
2022-04-06 09:25:00,,0824.9,4.99,0.00,22.3,22.5,00.0,31.3,24.2,05.3,0000.0,0005.20,0001.54,0000.67
2022-04-06 09:26:00,,0824.9,5.01,0.00,22.3,22.2,00.0,31.3,24.1,05.4,0000.0,0005.39,0001.60,0000.68
2022-04-06 09:27:00,,0824.9,5.01,0.00,22.3,21.9,00.0,31.3,24.0,05.3,0000.0,0005.52,0001.64,0000.68
2022-04-06 09:28:00,,0824.9,4.99,0.00,22.3,21.7,00.0,31.3,23.9,05.2,0000.0,0004.99,0001.63,0000.69
2022-04-06 09:29:00,,0824.8,5.01,0.00,22.2,21.6,00.0,31.2,23.8,05.3,0000.0,0005.05,0001.64,0000.68
2022-04-06 09:30:00,,0824.8,5.00,0.00,22.2,21.4,00.0,31.2,23.8,05.3,0000.0,0005.16,0001.63,0000.68
2022-04-06 09:31:00,,0824.9,5.00,0.00,22.2,21.3,00.0,31.2,23.8,05.4,0000.0,0005.51,0001.67,0000.67
2022-04-06 09:32:00,,0824.9,5.00,0.00,22.1,21.2,00.0,31.2,23.8,05.5,0000.0,0005.85,0001.69,0000.66
2022-04-06 09:33:00,,0824.9,5.00,0.00,22.1,21.1,00.0,31.2,23.7,05.4,0000.0,0005.85,0001.66,0000.67
2022-04-06 09:34:00,,0824.9,5.00,0.00,22.1,21.1,00.0,31.2,23.6,05.4,0000.0,0005.67,0001.59,0000.68
2022-04-06 09:35:00,,0824.9,4.99,0.00,22.0,21.0,00.0,31.2,23.6,05.4,0000.0,0006.58,0001.57,0000.68
2022-04-06 09:36:00,,0824.9,5.00,0.00,22.0,21.0,00.0,31.2,23.6,05.5,0000.0,0007.13,0001.58,0000.69
2022-04-06 09:37:00,,0824.9,5.00,0.00,22.0,20.9,00.0,31.1,23.6,05.5,0000.0,0007.02,0001.55,0000.67
2022-04-06 09:38:00,,0824.9,5.00,0.00,21.9,20.9,00.0,31.1,23.6,05.5,0000.0,0007.31,0001.61,0000.67
2022-04-06 09:39:00,,0825.0,5.01,0.00,22.0,21.4,00.0,31.1,23.7,05.6,0000.0,0007.50,0001.65,0000.67
2022-04-06 09:40:00,,0825.1,5.00,0.00,22.1,22.3,00.0,31.2,24.0,05.5,0000.0,0007.52,0001.68,0000.67
2022-04-06 09:41:00,,0825.0,5.01,0.00,22.3,23.1,00.0,31.2,24.3,05.5,0000.0,0007.62,0001.72,0000.67
2022-04-06 09:42:00,,0825.1,4.99,0.00,22.4,23.3,00.0,31.3,24.4,05.5,0000.0,0007.58,0001.65,0000.67
2022-04-06 09:43:00,,0824.9,5.00,0.00,22.4,23.0,00.0,31.3,24.3,05.5,0000.0,0007.96,0001.61,0000.66
2022-04-06 09:44:00,,0824.9,4.99,0.00,22.4,22.6,00.0,31.3,24.2,05.5,0000.0,0008.22,0001.66,0000.64
2022-04-06 09:45:00,,0824.8,5.01,0.00,22.4,22.3,00.0,31.3,24.2,05.3,0000.0,0008.40,0001.68,0000.64
2022-04-06 09:46:00,,0824.7,4.99,0.00,22.3,22.1,00.0,31.3,24.1,05.1,0000.0,0008.20,0001.67,0000.64
2022-04-06 09:47:00,,0824.7,5.00,0.00,22.3,21.9,00.0,31.3,24.0,05.1,0000.0,0008.25,0001.68,0000.64
2022-04-06 09:48:00,,0824.7,5.01,0.00,22.2,21.6,00.0,31.3,23.9,05.1,0000.0,0008.53,0001.68,0000.66
2022-04-06 09:49:00,,0824.9,5.00,0.00,22.2,21.4,00.0,31.2,23.8,05.3,0000.0,0008.53,0001.61,0000.65
2022-04-06 09:50:00,,0824.9,5.00,0.00,22.1,21.3,00.0,31.2,23.7,05.4,0000.0,0008.45,0001.56,0000.64
2022-04-06 09:51:00,,0824.9,5.00,0.00,22.1,21.2,00.0,31.2,23.6,05.5,0000.0,0008.51,0001.53,0000.63
2022-04-06 09:52:00,,0824.9,5.00,0.00,22.1,21.1,00.0,31.2,23.6,05.5,0000.0,0008.40,0001.57,0000.63
2022-04-06 09:53:00,,0824.9,4.99,0.00,22.0,21.0,00.0,31.2,23.6,05.6,0000.0,0008.71,0001.63,0000.64
2022-04-06 09:54:00,,0824.7,5.00,0.00,22.0,21.0,00.0,31.2,23.6,05.5,0000.0,0008.51,0001.69,0000.66
2022-04-06 09:55:00,,0824.8,5.00,0.00,22.0,20.9,00.0,31.1,23.6,05.2,0000.0,0008.21,0001.68,0000.67
2022-04-06 09:56:00,,0824.7,5.00,0.00,22.0,20.9,00.0,31.1,23.5,05.4,0000.0,0007.74,0001.66,0000.66
2022-04-06 09:57:00,,0824.7,5.01,0.00,21.9,20.9,00.0,31.1,23.5,05.3,0000.0,0007.11,0001.68,0000.65
2022-04-06 09:58:00,,0824.6,5.00,0.00,21.9,21.2,00.0,31.1,23.6,05.2,0000.0,0006.49,0001.66,0000.66
2022-04-06 09:59:00,,0824.7,5.00,0.00,22.1,22.1,00.0,31.2,23.9,05.1,0000.0,0007.21,0001.67,0000.65
